HISTORICAL SENSOR DATA

Sensor Data Report

DB LIVE
CURRENT TIME--:--:--
DEVICE NETWORK Gateway Status
13 ESP · realtime ~1s · history 60s
Weather WS-MOD-01
ONLINE
Actuator ACT-MOD-01
OFFLINE
Mainboard L3 MB-L3-01
ONLINE
Mainboard L5 MB-L5-01
ONLINE
Remote AC AC-REMOTE-01
ONLINE
PZEM L3-01 PWR-L3-01
OFFLINE
PZEM L3-02 PWR-L3-02
OFFLINE
PZEM L3-03 PWR-L3-03
OFFLINE
PZEM L3-04 PWR-L3-04
OFFLINE
PZEM L5-01 PWR-L5-01
ONLINE
PZEM L5-02 PWR-L5-02
ONLINE
PZEM L5-03 PWR-L5-03
OFFLINE
PZEM L5-04 PWR-L5-04
OFFLINE
REPORT FILTER

Periode & Sensor

DATABASE HISTORY
RESET
QUICK RANGE Hari ini 7 hari 30 hari
PERIODE08 Aug 2026sampai 06 Sep 2026
TOTAL DATA67,817sensor readings
MINIMUM-0.50sesuai filter
AVERAGE84.86sesuai filter
MAXIMUM32,564.20sesuai filter
REPORT RESULT

Data Sensor

08/08/2026 — 06/09/2026 EXPORT CSV
NOTANGGALWAKTUDEVICECHANNELSENSORVALUEUNIT
4001 06/09/2026 23:00:00 MB-L5-01Mainboard Lantai 5 L5-LUX-01 Illuminance / LUX 1 0.00 lux
4002 06/09/2026 23:00:00 WS-MOD-01Weather Station Module WS-DIR Arah Angin 174.30 °
4003 06/09/2026 23:00:00 MB-L3-01Mainboard Lantai 3 L3-RAD-02 Radiation 2 0.00 W/m²
4004 06/09/2026 23:00:00 MB-L5-01Mainboard Lantai 5 L5-ST-01 Surface Temperature 1 24.80 °C
4005 06/09/2026 23:00:00 MB-L3-01Mainboard Lantai 3 L3-AI-05 Analog Input 5 3.12 V
4006 06/09/2026 23:00:00 MB-L5-01Mainboard Lantai 5 L5-HFT-02 Heat Flow Temperature 2 24.10 °C
4007 06/09/2026 23:00:00 MB-L3-01Mainboard Lantai 3 L3-LUX-02 Illuminance / LUX 2 0.20 lux
4008 06/09/2026 23:00:00 PWR-L5-02Power Meter L5 PZEM 02 PZEM-L5-02-POWER PZEM L5-02 Active Power 0.00 W
4009 06/09/2026 23:00:00 MB-L5-01Mainboard Lantai 5 L5-AI-02 Analog Input 2 3.05 V
4010 06/09/2026 23:00:00 PWR-L5-01Power Meter L5 PZEM 01 PZEM-L5-01-VOLT PZEM L5-01 Voltage 227.30 V
4011 06/09/2026 23:00:00 AC-REMOTE-01Remote AC AC-MODE AC Operating Mode 1.00 code
4012 06/09/2026 23:00:00 MB-L3-01Mainboard Lantai 3 L3-SHT-01-T SHT20 1 Temperature 29.00 °C
4013 06/09/2026 23:00:00 MB-L3-01Mainboard Lantai 3 L3-SHT-02-T SHT20 2 Temperature 29.20 °C
4014 06/09/2026 23:00:00 PWR-L5-02Power Meter L5 PZEM 02 PZEM-L5-02-PF PZEM L5-02 Power Factor 0.00
4015 06/09/2026 23:00:00 MB-L5-01Mainboard Lantai 5 L5-BGT-01 Black Globe Temperature 1 27.10 °C
4016 06/09/2026 23:00:00 MB-L5-01Mainboard Lantai 5 L5-AI-05 Analog Input 5 3.05 V
4017 06/09/2026 23:00:00 MB-L3-01Mainboard Lantai 3 L3-AI-03 Analog Input 3 3.12 V
4018 06/09/2026 23:00:00 WS-MOD-01Weather Station Module WS-WIND Kecepatan Angin 2.60 m/s
4019 06/09/2026 23:00:00 PWR-L5-01Power Meter L5 PZEM 01 PZEM-L5-01-CURR PZEM L5-01 Current 0.12 A
4020 06/09/2026 23:00:00 MB-L5-01Mainboard Lantai 5 L5-ST-02 Surface Temperature 2 24.30 °C
4021 06/09/2026 23:00:00 MB-L5-01Mainboard Lantai 5 L5-SHT-01-RH SHT20 1 Humidity 45.20 %RH
4022 06/09/2026 23:00:00 PWR-L5-02Power Meter L5 PZEM 02 PZEM-L5-02-CURR PZEM L5-02 Current 0.00 A
4023 06/09/2026 23:00:00 MB-L3-01Mainboard Lantai 3 L3-LUX-06 Illuminance / LUX 6 0.30 lux
4024 06/09/2026 23:00:00 WS-MOD-01Weather Station Module WS-PRES Tekanan Udara 912.00 hPa
4025 06/09/2026 23:00:00 MB-L5-01Mainboard Lantai 5 L5-SHT-02-T SHT20 2 Temperature 29.30 °C
4026 06/09/2026 23:00:00 MB-L3-01Mainboard Lantai 3 L3-LUX-04 Illuminance / LUX 4 0.10 lux
4027 06/09/2026 23:00:00 AC-REMOTE-01Remote AC AC-SETPOINT AC Set Temperature 23.00 °C
4028 06/09/2026 23:00:00 PWR-L5-01Power Meter L5 PZEM 01 PZEM-L5-01-POWER PZEM L5-01 Active Power 10.60 W
4029 06/09/2026 23:00:00 MB-L3-01Mainboard Lantai 3 L3-AI-01 Analog Input 1 3.12 V
4030 06/09/2026 23:00:00 MB-L5-01Mainboard Lantai 5 L5-SHT-03-RH SHT20 3 Humidity 44.90 %RH
4031 06/09/2026 23:00:00 MB-L3-01Mainboard Lantai 3 L3-SHT-02-RH SHT20 2 Humidity 44.50 %RH
4032 06/09/2026 23:00:00 MB-L5-01Mainboard Lantai 5 L5-SHT-01-T SHT20 1 Temperature 29.00 °C
4033 06/09/2026 23:00:00 MB-L3-01Mainboard Lantai 3 L3-SHT-03-RH SHT20 3 Humidity 44.80 %RH
4034 06/09/2026 23:00:00 MB-L5-01Mainboard Lantai 5 L5-LUX-03 Illuminance / LUX 3 0.20 lux
4035 06/09/2026 23:00:00 MB-L5-01Mainboard Lantai 5 L5-SHT-03-T SHT20 3 Temperature 29.30 °C
4036 06/09/2026 23:00:00 MB-L3-01Mainboard Lantai 3 L3-AI-06 Analog Input 6 3.12 V
4037 06/09/2026 23:00:00 MB-L5-01Mainboard Lantai 5 L5-AI-03 Analog Input 3 3.05 V
4038 06/09/2026 23:00:00 MB-L5-01Mainboard Lantai 5 L5-SHT-02-RH SHT20 2 Humidity 44.50 %RH
4039 06/09/2026 23:00:00 PWR-L5-02Power Meter L5 PZEM 02 PZEM-L5-02-FREQ PZEM L5-02 Frequency 50.00 Hz
4040 06/09/2026 23:00:00 MB-L3-01Mainboard Lantai 3 L3-RAD-01 Radiation 1 0.00 W/m²
4041 06/09/2026 22:59:00 PWR-L5-02Power Meter L5 PZEM 02 PZEM-L5-02-ENERGY PZEM L5-02 Energy 0.04 kWh
4042 06/09/2026 22:59:00 MB-L3-01Mainboard Lantai 3 L3-LUX-01 Illuminance / LUX 1 0.20 lux
4043 06/09/2026 22:59:00 MB-L5-01Mainboard Lantai 5 L5-LUX-06 Illuminance / LUX 6 0.10 lux
4044 06/09/2026 22:59:00 MB-L3-01Mainboard Lantai 3 L3-AI-02 Analog Input 2 3.12 V
4045 06/09/2026 22:59:00 MB-L5-01Mainboard Lantai 5 L5-AI-04 Analog Input 4 3.05 V
4046 06/09/2026 22:59:00 MB-L3-01Mainboard Lantai 3 L3-SHT-01-RH SHT20 1 Humidity 45.00 %RH
4047 06/09/2026 22:59:00 MB-L3-01Mainboard Lantai 3 L3-LUX-03 Illuminance / LUX 3 0.20 lux
4048 06/09/2026 22:59:00 PWR-L5-01Power Meter L5 PZEM 01 PZEM-L5-01-PF PZEM L5-01 Power Factor 0.38
4049 06/09/2026 22:59:00 WS-MOD-01Weather Station Module WS-TEMP Suhu Udara 20.40 °C
4050 06/09/2026 22:59:00 AC-REMOTE-01Remote AC AC-FAN AC Fan Speed 0.00 code
4051 06/09/2026 22:59:00 MB-L5-01Mainboard Lantai 5 L5-BGT-03 Black Globe Temperature 3 26.80 °C
4052 06/09/2026 22:59:00 MB-L3-01Mainboard Lantai 3 L3-SHT-03-T SHT20 3 Temperature 29.20 °C
4053 06/09/2026 22:59:00 MB-L5-01Mainboard Lantai 5 L5-LUX-01 Illuminance / LUX 1 0.00 lux
4054 06/09/2026 22:59:00 WS-MOD-01Weather Station Module WS-DIR Arah Angin 356.90 °
4055 06/09/2026 22:59:00 MB-L3-01Mainboard Lantai 3 L3-RAD-02 Radiation 2 0.00 W/m²
4056 06/09/2026 22:59:00 MB-L5-01Mainboard Lantai 5 L5-ST-01 Surface Temperature 1 24.80 °C
4057 06/09/2026 22:59:00 MB-L3-01Mainboard Lantai 3 L3-AI-05 Analog Input 5 3.12 V
4058 06/09/2026 22:59:00 MB-L5-01Mainboard Lantai 5 L5-HFT-02 Heat Flow Temperature 2 24.10 °C
4059 06/09/2026 22:59:00 MB-L3-01Mainboard Lantai 3 L3-LUX-02 Illuminance / LUX 2 0.20 lux
4060 06/09/2026 22:59:00 PWR-L5-02Power Meter L5 PZEM 02 PZEM-L5-02-POWER PZEM L5-02 Active Power 0.00 W
4061 06/09/2026 22:59:00 MB-L5-01Mainboard Lantai 5 L5-AI-02 Analog Input 2 3.05 V
4062 06/09/2026 22:59:00 PWR-L5-01Power Meter L5 PZEM 01 PZEM-L5-01-VOLT PZEM L5-01 Voltage 227.20 V
4063 06/09/2026 22:59:00 AC-REMOTE-01Remote AC AC-MODE AC Operating Mode 1.00 code
4064 06/09/2026 22:59:00 MB-L3-01Mainboard Lantai 3 L3-SHT-01-T SHT20 1 Temperature 29.10 °C
4065 06/09/2026 22:59:00 MB-L3-01Mainboard Lantai 3 L3-SHT-02-T SHT20 2 Temperature 29.20 °C
4066 06/09/2026 22:59:00 PWR-L5-02Power Meter L5 PZEM 02 PZEM-L5-02-PF PZEM L5-02 Power Factor 0.00
4067 06/09/2026 22:59:00 MB-L5-01Mainboard Lantai 5 L5-BGT-01 Black Globe Temperature 1 27.10 °C
4068 06/09/2026 22:59:00 MB-L5-01Mainboard Lantai 5 L5-AI-05 Analog Input 5 3.05 V
4069 06/09/2026 22:59:00 MB-L3-01Mainboard Lantai 3 L3-AI-03 Analog Input 3 3.12 V
4070 06/09/2026 22:59:00 WS-MOD-01Weather Station Module WS-WIND Kecepatan Angin 0.64 m/s
4071 06/09/2026 22:59:00 PWR-L5-01Power Meter L5 PZEM 01 PZEM-L5-01-CURR PZEM L5-01 Current 0.12 A
4072 06/09/2026 22:59:00 MB-L5-01Mainboard Lantai 5 L5-ST-02 Surface Temperature 2 24.30 °C
4073 06/09/2026 22:59:00 MB-L5-01Mainboard Lantai 5 L5-SHT-01-RH SHT20 1 Humidity 45.20 %RH
4074 06/09/2026 22:59:00 PWR-L5-02Power Meter L5 PZEM 02 PZEM-L5-02-CURR PZEM L5-02 Current 0.00 A
4075 06/09/2026 22:59:00 MB-L3-01Mainboard Lantai 3 L3-LUX-06 Illuminance / LUX 6 0.30 lux
4076 06/09/2026 22:59:00 WS-MOD-01Weather Station Module WS-PRES Tekanan Udara 912.00 hPa
4077 06/09/2026 22:59:00 MB-L5-01Mainboard Lantai 5 L5-SHT-02-T SHT20 2 Temperature 29.30 °C
4078 06/09/2026 22:59:00 MB-L3-01Mainboard Lantai 3 L3-LUX-04 Illuminance / LUX 4 0.10 lux
4079 06/09/2026 22:59:00 AC-REMOTE-01Remote AC AC-SETPOINT AC Set Temperature 23.00 °C
4080 06/09/2026 22:59:00 PWR-L5-01Power Meter L5 PZEM 01 PZEM-L5-01-POWER PZEM L5-01 Active Power 10.50 W
4081 06/09/2026 22:59:00 MB-L3-01Mainboard Lantai 3 L3-AI-01 Analog Input 1 3.12 V
4082 06/09/2026 22:59:00 MB-L5-01Mainboard Lantai 5 L5-SHT-03-RH SHT20 3 Humidity 44.90 %RH
4083 06/09/2026 22:59:00 MB-L3-01Mainboard Lantai 3 L3-SHT-02-RH SHT20 2 Humidity 44.40 %RH
4084 06/09/2026 22:59:00 MB-L5-01Mainboard Lantai 5 L5-SHT-01-T SHT20 1 Temperature 29.10 °C
4085 06/09/2026 22:59:00 MB-L3-01Mainboard Lantai 3 L3-SHT-03-RH SHT20 3 Humidity 44.80 %RH
4086 06/09/2026 22:59:00 MB-L5-01Mainboard Lantai 5 L5-LUX-03 Illuminance / LUX 3 0.20 lux
4087 06/09/2026 22:59:00 MB-L5-01Mainboard Lantai 5 L5-SHT-03-T SHT20 3 Temperature 29.20 °C
4088 06/09/2026 22:59:00 MB-L3-01Mainboard Lantai 3 L3-AI-06 Analog Input 6 3.12 V
4089 06/09/2026 22:59:00 MB-L5-01Mainboard Lantai 5 L5-AI-03 Analog Input 3 3.05 V
4090 06/09/2026 22:59:00 MB-L5-01Mainboard Lantai 5 L5-SHT-02-RH SHT20 2 Humidity 44.60 %RH
4091 06/09/2026 22:59:00 PWR-L5-02Power Meter L5 PZEM 02 PZEM-L5-02-FREQ PZEM L5-02 Frequency 50.00 Hz
4092 06/09/2026 22:59:00 MB-L3-01Mainboard Lantai 3 L3-RAD-01 Radiation 1 1.00 W/m²
4093 06/09/2026 22:59:00 PWR-L5-01Power Meter L5 PZEM 01 PZEM-L5-01-ENERGY PZEM L5-01 Energy 0.05 kWh
4094 06/09/2026 22:59:00 MB-L5-01Mainboard Lantai 5 L5-BGT-02 Black Globe Temperature 2 26.90 °C
4095 06/09/2026 22:59:00 PWR-L5-02Power Meter L5 PZEM 02 PZEM-L5-02-VOLT PZEM L5-02 Voltage 227.10 V
4096 06/09/2026 22:59:00 MB-L5-01Mainboard Lantai 5 L5-AI-06 Analog Input 6 3.05 V
4097 06/09/2026 22:59:00 AC-REMOTE-01Remote AC AC-POWER AC Power State 1.00 state
4098 06/09/2026 22:59:00 MB-L3-01Mainboard Lantai 3 L3-AI-04 Analog Input 4 3.12 V
4099 06/09/2026 22:59:00 MB-L3-01Mainboard Lantai 3 L3-LUX-05 Illuminance / LUX 5 0.30 lux
4100 06/09/2026 22:59:00 MB-L5-01Mainboard Lantai 5 L5-RAD-02 Radiation 2 1.00 W/m²
Menampilkan maksimal 100 data per halaman